星链-35412(STARLINK-35412)

导读 | 豆包AI

STARLINK-35412是美国太空探索技术公司SpaceX星链星座中的一颗卫星,于2025年9月26日发射升空。星链计划旨在构建全球卫星互联网星座,为全球偏远地区、海洋、航空等场景提供高速低延迟的宽带互联网接入服务,STARLINK-35412加入后进一步拓展了星链星座的覆盖范围与服务能力。

基本信息
目录编号:
65797
目录名称:
STARLINK-35412
国际标识:
2025-218G
轨道中心:
EARTH
卫星名称:
星链-35412
卫星全名:
星链-35412(STARLINK-35412)
卫星状态:
在轨 (已飞行169 天)
发射日期:
2025-09-26 UTC
国别 :
美国 (US)
星等 :
--
轨道信息
数据来源 国际轨道数据 AOE轨道数据
星历时间 2026-03-14T04:57:23+0800
12小时前
查看轨道信息
2026-03-14T09:00:00+0800
8小时前
查看轨道信息
半长轴 6927.583km 6927.566km
偏心率 0.000223 0.0002433
轨道倾角 97.603° 97.603°
近地点辐角 93.251° 84.915°
升交点赤经 297.146° 297.307°
平近点角 266.897° 107.906°
近地点 547.901km 547.743km
远地点 550.991km 551.115km
周期 95.638分钟 95.638分钟
每日圈数 15.056713 15.056769
详细信息
固有亮度:
5
最大亮度:
2.5
卫星平台:
Starlink V1.0
覆盖范围:
全球
运营商:
太空探索技术公司
运营商所在国:
美国
制造商(研发单位):
太空探索技术公司
制造商所在国:
美国
使用方式:
暂无
卫星简介
Starlink 计划是 SpaceX 推出的全球卫星互联网项目,通过发射低轨道卫星,为全球尤其是偏远地区提供高速、低延迟的互联网服务。自 2019 年起,Starlink 已部署数千颗卫星,旨在缩小全球数字鸿沟,推动互联网普及。该项目还为军事、航空等行业提供通信支持,带来广泛经济效益。
2D轨道图
3D轨道图
轨道高度分析图
轨道倾角分析图
轨道综合分析图
查看轨道综合分析图